Year,Month,Day,Hour,Minute,Value (Times are PST for temperature in C)
2009,07,30,00,00,18.00
2009,07,30,00,01,18.00
2009,07,30,00,02,18.00
2009,07,30,00,03,18.00
2009,07,30,00,04,18.00
2009,07,30,00,05,18.00
2009,07,30,00,06,18.00
2009,07,30,00,07,18.00
2009,07,30,00,08,18.00
2009,07,30,00,09,18.10
2009,07,30,00,10,18.10
2009,07,30,00,11,18.10
2009,07,30,00,12,18.10
2009,07,30,00,13,18.10
2009,07,30,00,14,18.10
2009,07,30,00,15,18.10
2009,07,30,00,16,18.20
2009,07,30,00,17,18.20
2009,07,30,00,18,18.20
2009,07,30,00,19,18.20
2009,07,30,00,20,18.20
2009,07,30,00,21,18.30
2009,07,30,00,22,18.30
2009,07,30,00,23,18.30
2009,07,30,00,24,18.30
2009,07,30,00,25,18.30
2009,07,30,00,26,18.40
2009,07,30,00,27,18.40
2009,07,30,00,28,18.40
2009,07,30,00,29,18.40
2009,07,30,00,30,18.40
2009,07,30,00,31,18.50
2009,07,30,00,32,18.50
2009,07,30,00,33,18.50
2009,07,30,00,34,18.60
2009,07,30,00,35,18.60
2009,07,30,00,36,18.60
2009,07,30,00,37,18.60
2009,07,30,00,38,18.60
2009,07,30,00,39,18.70
2009,07,30,00,40,18.70
2009,07,30,00,41,18.70
2009,07,30,00,42,18.70
2009,07,30,00,43,18.70
2009,07,30,00,44,18.70
2009,07,30,00,45,18.70
2009,07,30,00,46,18.80
2009,07,30,00,47,18.80
2009,07,30,00,48,18.80
2009,07,30,00,49,18.80
2009,07,30,00,50,18.80
2009,07,30,00,51,18.80
2009,07,30,00,52,18.80
2009,07,30,00,53,18.80
2009,07,30,00,54,18.80
2009,07,30,00,55,18.80
2009,07,30,00,56,18.80
2009,07,30,00,57,18.80
2009,07,30,00,58,18.80
2009,07,30,00,59,18.80
2009,07,30,01,00,18.70
2009,07,30,01,01,18.70
2009,07,30,01,02,18.70
2009,07,30,01,03,18.70
2009,07,30,01,04,18.70
2009,07,30,01,05,18.70
2009,07,30,01,06,18.70
2009,07,30,01,07,18.70
2009,07,30,01,08,18.70
2009,07,30,01,09,18.70
2009,07,30,01,10,18.70
2009,07,30,01,11,18.80
2009,07,30,01,12,18.80
2009,07,30,01,13,18.70
2009,07,30,01,14,18.70
2009,07,30,01,15,18.70
2009,07,30,01,16,18.60
2009,07,30,01,17,18.60
2009,07,30,01,18,18.60
2009,07,30,01,19,18.50
2009,07,30,01,20,18.50
2009,07,30,01,21,18.40
2009,07,30,01,22,18.20
2009,07,30,01,23,18.00
2009,07,30,01,24,17.90
2009,07,30,01,25,17.80
2009,07,30,01,26,17.70
2009,07,30,01,27,17.60
2009,07,30,01,28,17.50
2009,07,30,01,29,17.40
2009,07,30,01,30,17.30
2009,07,30,01,31,17.30
2009,07,30,01,32,17.30
2009,07,30,01,33,17.20
2009,07,30,01,34,17.20
2009,07,30,01,35,17.20
2009,07,30,01,36,17.10
2009,07,30,01,37,17.10
2009,07,30,01,38,17.10
2009,07,30,01,39,17.10
2009,07,30,01,40,17.10
2009,07,30,01,41,17.10
2009,07,30,01,42,17.10
2009,07,30,01,43,17.10
2009,07,30,01,44,17.10
2009,07,30,01,45,17.00
2009,07,30,01,46,16.90
2009,07,30,01,47,16.80
2009,07,30,01,48,16.60
2009,07,30,01,49,16.40
2009,07,30,01,50,16.30
2009,07,30,01,51,16.20
2009,07,30,01,52,16.00
2009,07,30,01,53,15.90
2009,07,30,01,54,15.80
2009,07,30,01,55,15.60
2009,07,30,01,56,15.50
2009,07,30,01,57,15.40
2009,07,30,01,58,15.30
2009,07,30,01,59,15.20
2009,07,30,02,00,15.10
2009,07,30,02,01,15.00
2009,07,30,02,02,15.00
2009,07,30,02,03,15.00
2009,07,30,02,04,15.00
2009,07,30,02,05,14.90
2009,07,30,02,06,14.80
2009,07,30,02,07,14.70
2009,07,30,02,08,14.70
2009,07,30,02,09,14.60
2009,07,30,02,10,14.50
2009,07,30,02,11,14.50
2009,07,30,02,12,14.40
2009,07,30,02,13,14.40
2009,07,30,02,14,14.40
2009,07,30,02,15,14.40
2009,07,30,02,16,14.40
2009,07,30,02,17,14.40
2009,07,30,02,18,14.50
2009,07,30,02,19,14.50
2009,07,30,02,20,14.50
2009,07,30,02,21,14.60
2009,07,30,02,22,14.60
2009,07,30,02,23,14.60
2009,07,30,02,24,14.60
2009,07,30,02,25,14.60
2009,07,30,02,26,14.70
2009,07,30,02,27,14.70
2009,07,30,02,28,14.70
2009,07,30,02,29,14.70
2009,07,30,02,30,14.70
2009,07,30,02,31,14.70
2009,07,30,02,32,14.70
2009,07,30,02,33,14.70
2009,07,30,02,34,14.60
2009,07,30,02,35,14.60
2009,07,30,02,36,14.60
2009,07,30,02,37,14.50
2009,07,30,02,38,14.50
2009,07,30,02,39,14.40
2009,07,30,02,40,14.40
2009,07,30,02,41,14.40
2009,07,30,02,42,14.40
2009,07,30,02,43,14.30
2009,07,30,02,44,14.30
2009,07,30,02,45,14.30
2009,07,30,02,46,14.30
2009,07,30,02,47,14.30
2009,07,30,02,48,14.30
2009,07,30,02,49,14.30
2009,07,30,02,50,14.20
2009,07,30,02,51,14.20
2009,07,30,02,52,14.20
2009,07,30,02,53,14.10
2009,07,30,02,54,14.10
2009,07,30,02,55,14.10
2009,07,30,02,56,14.00
2009,07,30,02,57,14.00
2009,07,30,02,58,14.00
2009,07,30,02,59,13.90
2009,07,30,03,00,13.90
2009,07,30,03,01,13.90
2009,07,30,03,02,13.90
2009,07,30,03,03,13.90
2009,07,30,03,04,13.90
2009,07,30,03,05,13.80
2009,07,30,03,06,13.80
2009,07,30,03,07,13.80
2009,07,30,03,08,13.80
2009,07,30,03,09,13.80
2009,07,30,03,10,13.80
2009,07,30,03,11,13.80
2009,07,30,03,12,13.80
2009,07,30,03,13,13.80
2009,07,30,03,14,13.80
2009,07,30,03,15,13.90
2009,07,30,03,16,13.90
2009,07,30,03,17,13.90
2009,07,30,03,18,13.90
2009,07,30,03,19,13.90
2009,07,30,03,20,13.90
2009,07,30,03,21,13.90
2009,07,30,03,22,13.90
2009,07,30,03,23,13.90
2009,07,30,03,24,13.90
2009,07,30,03,25,13.80
2009,07,30,03,26,13.80
2009,07,30,03,27,13.80
2009,07,30,03,28,13.80
2009,07,30,03,29,13.80
2009,07,30,03,30,13.80
2009,07,30,03,31,13.70
2009,07,30,03,32,13.70
2009,07,30,03,33,13.70
2009,07,30,03,34,13.70
2009,07,30,03,35,13.70
2009,07,30,03,36,13.70
2009,07,30,03,37,13.70
2009,07,30,03,38,13.70
2009,07,30,03,39,13.60
2009,07,30,03,40,13.60
2009,07,30,03,41,13.60
2009,07,30,03,42,13.60
2009,07,30,03,43,13.60
2009,07,30,03,44,13.60
2009,07,30,03,45,13.60
2009,07,30,03,46,13.60
2009,07,30,03,47,13.60
2009,07,30,03,48,13.60
2009,07,30,03,49,13.60
2009,07,30,03,50,13.60
2009,07,30,03,51,13.60
2009,07,30,03,52,13.60
2009,07,30,03,53,13.60
2009,07,30,03,54,13.60
2009,07,30,03,55,13.60
2009,07,30,03,56,13.60
2009,07,30,03,57,13.60
2009,07,30,03,58,13.60
2009,07,30,03,59,13.60
2009,07,30,04,00,13.60
2009,07,30,04,01,13.60
2009,07,30,04,02,13.60
2009,07,30,04,03,13.60
2009,07,30,04,04,13.60
2009,07,30,04,09,13.70
2009,07,30,04,10,13.70
2009,07,30,04,11,13.70
2009,07,30,04,12,13.70
2009,07,30,04,13,13.70
2009,07,30,04,14,13.70
2009,07,30,04,15,13.80
2009,07,30,04,16,13.80
2009,07,30,04,17,13.80
2009,07,30,04,18,13.80
2009,07,30,04,19,13.80
2009,07,30,04,20,13.80
2009,07,30,04,21,13.80
2009,07,30,04,22,13.80
2009,07,30,04,23,13.90
2009,07,30,04,24,13.90
2009,07,30,04,25,13.90
2009,07,30,04,26,13.90
2009,07,30,04,27,13.90
2009,07,30,04,28,13.90
2009,07,30,04,29,13.90
2009,07,30,04,30,13.90
2009,07,30,04,31,13.90
2009,07,30,04,32,13.90
2009,07,30,04,33,13.90
2009,07,30,04,34,14.00
2009,07,30,04,35,13.90
2009,07,30,04,36,14.00
2009,07,30,04,37,14.00
2009,07,30,04,38,14.00
2009,07,30,04,39,14.00
2009,07,30,04,40,14.00
2009,07,30,04,41,14.10
2009,07,30,04,42,14.10
2009,07,30,04,43,14.10
2009,07,30,04,44,14.10
2009,07,30,04,45,14.10
2009,07,30,04,46,14.10
2009,07,30,04,47,14.20
2009,07,30,04,48,14.20
2009,07,30,04,49,14.20
2009,07,30,04,50,14.20
2009,07,30,04,51,14.20
2009,07,30,04,52,14.30
2009,07,30,04,53,14.30
2009,07,30,04,54,14.30
2009,07,30,04,55,14.40
2009,07,30,04,56,14.40
2009,07,30,04,57,14.40
2009,07,30,04,58,14.40
2009,07,30,04,59,14.40
2009,07,30,05,00,14.50
2009,07,30,05,01,14.50
2009,07,30,05,02,14.60
2009,07,30,05,03,14.60
2009,07,30,05,04,14.60
2009,07,30,05,05,14.60
2009,07,30,05,06,14.70
2009,07,30,05,07,14.70
2009,07,30,05,08,14.70
2009,07,30,05,09,14.70
2009,07,30,05,10,14.80
2009,07,30,05,11,14.80
2009,07,30,05,12,14.80
2009,07,30,05,13,14.80
2009,07,30,05,14,14.80
2009,07,30,05,15,14.80
2009,07,30,05,16,14.90
2009,07,30,05,17,15.00
2009,07,30,05,18,15.00
2009,07,30,05,19,15.00
2009,07,30,05,20,15.00
2009,07,30,05,21,15.00
2009,07,30,05,22,15.00
2009,07,30,05,23,15.00
2009,07,30,05,24,15.00
2009,07,30,05,25,15.00
2009,07,30,05,26,15.00
2009,07,30,05,27,15.00
2009,07,30,05,28,15.10
2009,07,30,05,29,15.10
2009,07,30,05,30,15.20
2009,07,30,05,31,15.20
2009,07,30,05,32,15.30
2009,07,30,05,33,15.30
2009,07,30,05,34,15.40
2009,07,30,05,35,15.40
2009,07,30,05,36,15.50
2009,07,30,05,37,15.50
2009,07,30,05,38,15.60
2009,07,30,05,39,15.60
2009,07,30,05,40,15.60
2009,07,30,05,41,15.70
2009,07,30,05,42,15.70
2009,07,30,05,43,15.70
2009,07,30,05,44,15.70
2009,07,30,05,45,15.80
2009,07,30,05,46,15.80
2009,07,30,05,47,15.80
2009,07,30,05,48,15.80
2009,07,30,05,49,15.80
2009,07,30,05,50,15.90
2009,07,30,05,51,15.90
2009,07,30,05,52,15.90
2009,07,30,05,53,15.90
2009,07,30,05,54,15.90
2009,07,30,05,55,15.90
2009,07,30,05,56,15.80
2009,07,30,05,57,15.80
2009,07,30,05,58,15.80
2009,07,30,05,59,15.80
2009,07,30,06,00,15.80
2009,07,30,06,01,15.90
2009,07,30,06,02,15.90
2009,07,30,06,03,15.80
2009,07,30,06,04,15.80
2009,07,30,06,05,15.80
2009,07,30,06,06,15.70
2009,07,30,06,07,15.60
2009,07,30,06,08,15.60
2009,07,30,06,09,15.50
2009,07,30,06,10,15.50
2009,07,30,06,11,15.40
2009,07,30,06,12,15.20
2009,07,30,06,13,15.10
2009,07,30,06,14,15.00
2009,07,30,06,15,15.00
2009,07,30,06,16,14.80
2009,07,30,06,17,14.70
2009,07,30,06,18,14.70
2009,07,30,06,19,14.60
2009,07,30,06,20,14.60
2009,07,30,06,21,14.50
2009,07,30,06,22,14.50
2009,07,30,06,23,14.40
2009,07,30,06,24,14.40
2009,07,30,06,25,14.40
2009,07,30,06,26,14.30
2009,07,30,06,27,14.30
2009,07,30,06,28,14.30
2009,07,30,06,29,14.20
2009,07,30,06,30,14.20
2009,07,30,06,31,14.20
2009,07,30,06,32,14.20
2009,07,30,06,33,14.20
2009,07,30,06,34,14.20
2009,07,30,06,35,14.20
2009,07,30,06,36,14.10
2009,07,30,06,37,14.10
2009,07,30,06,38,14.10
2009,07,30,06,39,14.20
2009,07,30,06,40,14.20
2009,07,30,06,41,14.20
2009,07,30,06,42,14.20
2009,07,30,06,43,14.30
2009,07,30,06,44,14.30
2009,07,30,06,45,14.30
2009,07,30,06,46,14.30
2009,07,30,06,47,14.30
2009,07,30,06,48,14.40
2009,07,30,06,49,14.40
2009,07,30,06,50,14.40
2009,07,30,06,51,14.40
2009,07,30,06,52,14.40
2009,07,30,06,53,14.40
2009,07,30,06,54,14.40
2009,07,30,06,55,14.40
2009,07,30,06,56,14.40
2009,07,30,06,57,14.40
2009,07,30,06,58,14.40
2009,07,30,06,59,14.40
2009,07,30,07,00,14.40
2009,07,30,07,01,14.40
2009,07,30,07,02,14.40
2009,07,30,07,03,14.50
2009,07,30,07,04,14.50
2009,07,30,07,05,14.60
2009,07,30,07,06,14.60
2009,07,30,07,07,14.60
2009,07,30,07,08,14.60
2009,07,30,07,09,14.70
2009,07,30,07,10,14.70
2009,07,30,07,11,14.70
2009,07,30,07,12,14.80
2009,07,30,07,13,14.80
2009,07,30,07,14,14.80
2009,07,30,07,15,14.80
2009,07,30,07,16,14.90
2009,07,30,07,17,14.90
2009,07,30,07,18,14.90
2009,07,30,07,19,15.00
2009,07,30,07,20,15.00
2009,07,30,07,21,15.00
2009,07,30,07,22,15.00
2009,07,30,07,23,15.00
2009,07,30,07,24,15.00
2009,07,30,07,25,15.00
2009,07,30,07,26,15.00
2009,07,30,07,27,15.00
2009,07,30,07,28,15.00
2009,07,30,07,29,15.00
2009,07,30,07,30,15.10
2009,07,30,07,31,15.10
2009,07,30,07,32,15.20
2009,07,30,07,33,15.20
2009,07,30,07,34,15.20
2009,07,30,07,35,15.30
2009,07,30,07,36,15.30
2009,07,30,07,37,15.30
2009,07,30,07,38,15.40
2009,07,30,07,39,15.40
2009,07,30,07,40,15.40
2009,07,30,07,41,15.50
2009,07,30,07,42,15.50
2009,07,30,07,43,15.50
2009,07,30,07,44,15.60
2009,07,30,07,45,15.60
2009,07,30,07,46,15.60
2009,07,30,07,47,15.70
2009,07,30,07,48,15.70
2009,07,30,07,49,15.80
2009,07,30,07,50,15.80
2009,07,30,07,51,15.80
2009,07,30,07,52,15.90
2009,07,30,07,53,15.90
2009,07,30,07,54,16.00
2009,07,30,07,55,16.00
2009,07,30,07,56,16.10
2009,07,30,07,57,16.10
2009,07,30,07,58,16.20
2009,07,30,07,59,16.20
2009,07,30,08,00,16.20
2009,07,30,08,01,16.20
2009,07,30,08,02,16.20
2009,07,30,08,03,16.20
2009,07,30,08,04,16.20
2009,07,30,08,05,16.30
2009,07,30,08,06,16.30
2009,07,30,08,07,16.30
2009,07,30,08,08,16.40
2009,07,30,08,09,16.40
2009,07,30,08,10,16.40
2009,07,30,08,11,16.50
2009,07,30,08,12,16.50
2009,07,30,08,13,16.60
2009,07,30,08,14,16.60
2009,07,30,08,15,16.70
2009,07,30,08,16,16.70
2009,07,30,08,17,16.70
2009,07,30,08,18,16.80
2009,07,30,08,19,16.80
2009,07,30,08,20,16.90
2009,07,30,08,21,16.90
2009,07,30,08,22,16.90
2009,07,30,08,23,17.00
2009,07,30,08,24,17.10
2009,07,30,08,25,17.20
2009,07,30,08,26,17.20
2009,07,30,08,27,17.30
2009,07,30,08,28,17.30
2009,07,30,08,29,17.40
2009,07,30,08,30,17.40
2009,07,30,08,31,17.50
2009,07,30,08,32,17.50
2009,07,30,08,33,17.50
2009,07,30,08,34,17.60
2009,07,30,08,35,17.60
2009,07,30,08,36,17.60
2009,07,30,08,37,17.70
2009,07,30,08,38,17.80
2009,07,30,08,39,17.80
2009,07,30,08,40,17.90
2009,07,30,08,41,17.90
2009,07,30,08,42,18.00
2009,07,30,08,43,18.00
2009,07,30,08,44,17.90
2009,07,30,08,45,17.90
2009,07,30,08,46,17.80
2009,07,30,08,47,17.80
2009,07,30,08,48,17.70
2009,07,30,08,49,17.70
2009,07,30,08,50,17.70
2009,07,30,08,51,17.70
2009,07,30,08,52,17.70
2009,07,30,08,53,17.80
2009,07,30,08,54,17.80
2009,07,30,08,55,17.90
2009,07,30,08,56,17.90
2009,07,30,08,57,17.90
2009,07,30,08,58,17.90
2009,07,30,08,59,17.90
2009,07,30,09,00,17.90
2009,07,30,09,01,17.90
2009,07,30,09,02,17.90
2009,07,30,09,03,17.90
2009,07,30,09,04,17.90
2009,07,30,09,05,18.00
2009,07,30,09,06,18.00
2009,07,30,09,07,18.10
2009,07,30,09,08,18.10
2009,07,30,09,09,18.20
2009,07,30,09,10,18.20
2009,07,30,09,11,18.30
2009,07,30,09,12,18.30
2009,07,30,09,13,18.30
2009,07,30,09,14,18.30
2009,07,30,09,15,18.30
2009,07,30,09,16,18.40
2009,07,30,09,17,18.50
2009,07,30,09,18,18.60
2009,07,30,09,19,18.60
2009,07,30,09,20,18.50
2009,07,30,09,21,18.40
2009,07,30,09,22,18.40
2009,07,30,09,23,18.30
2009,07,30,09,24,18.30
2009,07,30,09,25,18.30
2009,07,30,09,26,18.30
2009,07,30,09,27,18.30
2009,07,30,09,28,18.30
2009,07,30,09,29,18.30
2009,07,30,09,30,18.30
2009,07,30,09,31,18.30
2009,07,30,09,32,18.30
2009,07,30,09,33,18.20
2009,07,30,09,34,18.20
2009,07,30,09,35,18.20
2009,07,30,09,36,18.10
2009,07,30,09,37,18.00
2009,07,30,09,38,17.90
2009,07,30,09,39,17.90
2009,07,30,09,40,17.90
2009,07,30,09,41,18.00
2009,07,30,09,42,18.10
2009,07,30,09,43,18.20
2009,07,30,09,44,18.20
2009,07,30,09,45,18.30
2009,07,30,09,46,18.40
2009,07,30,09,47,18.50
2009,07,30,09,48,18.50
2009,07,30,09,49,18.50
2009,07,30,09,50,18.40
2009,07,30,09,51,18.40
2009,07,30,09,52,18.40
2009,07,30,09,53,18.30
2009,07,30,09,54,18.30
2009,07,30,09,55,18.20
2009,07,30,09,56,18.20
2009,07,30,09,57,18.20
2009,07,30,09,58,18.20
2009,07,30,09,59,18.20
2009,07,30,10,00,18.20
2009,07,30,10,01,18.20
2009,07,30,10,02,18.30
2009,07,30,10,03,18.30
2009,07,30,10,04,18.30
2009,07,30,10,05,18.30
2009,07,30,10,06,18.20
2009,07,30,10,07,18.20
2009,07,30,10,08,18.20
2009,07,30,10,09,18.20
2009,07,30,10,10,18.30
2009,07,30,10,11,18.40
2009,07,30,10,12,18.50
2009,07,30,10,13,18.60
2009,07,30,10,14,18.60
2009,07,30,10,15,18.70
2009,07,30,10,16,18.70
2009,07,30,10,17,18.80
2009,07,30,10,18,18.80
2009,07,30,10,19,18.90
2009,07,30,10,20,18.90
2009,07,30,10,21,19.10
2009,07,30,10,22,19.20
2009,07,30,10,23,19.40
2009,07,30,10,24,19.60
2009,07,30,10,25,19.70
2009,07,30,10,26,19.90
2009,07,30,10,27,20.00
2009,07,30,10,28,20.10
2009,07,30,10,29,20.20
2009,07,30,10,30,20.20
2009,07,30,10,31,20.10
2009,07,30,10,32,20.10
2009,07,30,10,33,20.10
2009,07,30,10,34,20.00
2009,07,30,10,35,20.00
2009,07,30,10,36,20.00
2009,07,30,10,37,20.10
2009,07,30,10,38,20.10
2009,07,30,10,39,20.10
2009,07,30,10,40,20.20
2009,07,30,10,41,20.20
2009,07,30,10,42,20.10
2009,07,30,10,43,20.00
2009,07,30,10,44,19.90
2009,07,30,10,45,19.80
2009,07,30,10,46,19.80
2009,07,30,10,47,19.90
2009,07,30,10,48,19.80
2009,07,30,10,49,19.80
2009,07,30,10,50,19.80
2009,07,30,10,51,19.70
2009,07,30,10,52,19.70
2009,07,30,10,53,19.80
2009,07,30,10,54,19.90
2009,07,30,10,55,19.90
2009,07,30,10,56,19.90
2009,07,30,10,57,19.90
2009,07,30,10,58,19.90
2009,07,30,10,59,19.80
2009,07,30,11,00,19.80
2009,07,30,11,01,19.90
2009,07,30,11,02,19.90
2009,07,30,11,03,20.00
2009,07,30,11,04,20.10
2009,07,30,11,05,20.20
2009,07,30,11,06,20.30
2009,07,30,11,07,20.40
2009,07,30,11,08,20.40
2009,07,30,11,09,20.40
2009,07,30,11,10,20.50
2009,07,30,11,11,20.50
2009,07,30,11,12,20.50
2009,07,30,11,13,20.60
2009,07,30,11,14,20.60
2009,07,30,11,15,20.60
2009,07,30,11,16,20.60
2009,07,30,11,17,20.70
2009,07,30,11,18,20.70
2009,07,30,11,19,20.80
2009,07,30,11,20,20.90
2009,07,30,11,21,21.00
2009,07,30,11,22,21.10
2009,07,30,11,23,21.20
2009,07,30,11,24,21.30
2009,07,30,11,25,21.30
2009,07,30,11,26,21.40
2009,07,30,11,27,21.40
2009,07,30,11,28,21.40
2009,07,30,11,29,21.40
2009,07,30,11,30,21.60
2009,07,30,11,31,21.70
2009,07,30,11,32,21.90
2009,07,30,11,33,22.10
2009,07,30,11,34,22.30
2009,07,30,11,35,22.50
2009,07,30,11,36,22.70
2009,07,30,11,37,22.80
2009,07,30,11,38,22.80
2009,07,30,11,39,22.90
2009,07,30,11,40,22.90
2009,07,30,11,41,23.00
2009,07,30,11,42,23.10
2009,07,30,11,43,23.20
2009,07,30,11,44,23.40
2009,07,30,11,45,23.50
2009,07,30,11,46,23.60
2009,07,30,11,47,23.70
2009,07,30,11,48,23.70
2009,07,30,11,49,23.70
2009,07,30,11,50,23.60
2009,07,30,11,51,23.60
2009,07,30,11,52,23.70
2009,07,30,11,53,23.70
2009,07,30,11,54,23.80
2009,07,30,11,55,23.90
2009,07,30,11,56,23.90
2009,07,30,11,57,24.00
2009,07,30,11,58,24.10
2009,07,30,11,59,24.10
2009,07,30,12,00,24.20
2009,07,30,12,01,24.30
2009,07,30,12,02,24.40
2009,07,30,12,03,24.50
2009,07,30,12,04,24.50
2009,07,30,12,05,24.60
2009,07,30,12,06,24.70
2009,07,30,12,07,24.80
2009,07,30,12,08,24.90
2009,07,30,12,09,25.00
2009,07,30,12,10,25.10
2009,07,30,12,11,25.20
2009,07,30,12,12,25.30
2009,07,30,12,13,25.40
2009,07,30,12,14,25.50
2009,07,30,12,15,25.60
2009,07,30,12,16,25.60
2009,07,30,12,17,25.70
2009,07,30,12,18,25.70
2009,07,30,12,19,25.80
2009,07,30,12,20,25.80
2009,07,30,12,21,25.80
2009,07,30,12,22,25.90
2009,07,30,12,23,25.90
2009,07,30,12,24,26.00
2009,07,30,12,25,26.10
2009,07,30,12,26,26.20
2009,07,30,12,27,26.30
2009,07,30,12,28,26.20
2009,07,30,12,29,26.20
2009,07,30,12,30,26.20
2009,07,30,12,31,26.30
2009,07,30,12,32,26.40
2009,07,30,12,33,26.60
2009,07,30,12,34,26.70
2009,07,30,12,35,26.80
2009,07,30,12,36,26.90
2009,07,30,12,37,27.00
2009,07,30,12,38,27.00
2009,07,30,12,39,27.10
2009,07,30,12,40,27.20
2009,07,30,12,41,27.30
2009,07,30,12,42,27.40
2009,07,30,12,43,27.50
2009,07,30,12,44,27.50
2009,07,30,12,45,27.60
2009,07,30,12,46,27.70
2009,07,30,12,47,27.80
2009,07,30,12,48,27.80
2009,07,30,12,49,27.90
2009,07,30,12,50,28.00
2009,07,30,12,51,28.10
2009,07,30,12,52,28.20
2009,07,30,12,53,28.20
2009,07,30,12,54,28.30
2009,07,30,12,55,28.30
2009,07,30,12,56,28.20
2009,07,30,12,57,28.30
2009,07,30,12,58,28.30
2009,07,30,12,59,28.40
2009,07,30,13,00,28.40
2009,07,30,13,01,28.50
2009,07,30,13,02,28.50
2009,07,30,13,03,28.60
2009,07,30,13,04,28.60
2009,07,30,13,05,28.70
2009,07,30,13,06,28.80
2009,07,30,13,07,28.90
2009,07,30,13,08,29.00
2009,07,30,13,09,29.10
2009,07,30,13,10,29.20
2009,07,30,13,11,29.20
2009,07,30,13,12,29.20
2009,07,30,13,13,29.20
2009,07,30,13,14,29.20
2009,07,30,13,15,29.30
2009,07,30,13,16,29.30
2009,07,30,13,17,29.30
2009,07,30,13,18,29.40
2009,07,30,13,19,29.40
2009,07,30,13,20,29.40
2009,07,30,13,21,29.40
2009,07,30,13,22,29.40
2009,07,30,13,23,29.40
2009,07,30,13,24,29.40
2009,07,30,13,25,29.40
2009,07,30,13,26,29.40
2009,07,30,13,27,29.40
2009,07,30,13,28,29.50
2009,07,30,13,29,29.60
2009,07,30,13,30,29.60
2009,07,30,13,31,29.70
2009,07,30,13,32,29.80
2009,07,30,13,33,29.90
2009,07,30,13,34,29.90
2009,07,30,13,35,30.00
2009,07,30,13,36,29.90
2009,07,30,13,37,29.90
2009,07,30,13,38,29.90
2009,07,30,13,39,29.90
2009,07,30,13,40,29.80
2009,07,30,13,41,29.80
2009,07,30,13,42,29.80
2009,07,30,13,43,29.80
2009,07,30,13,44,29.80
2009,07,30,13,45,29.80
2009,07,30,13,46,29.90
2009,07,30,13,47,29.90
2009,07,30,13,48,30.00
2009,07,30,13,49,30.10
2009,07,30,13,50,30.10
2009,07,30,13,51,30.00
2009,07,30,13,52,29.90
2009,07,30,13,53,29.80
2009,07,30,13,54,29.70
2009,07,30,13,55,29.60
2009,07,30,13,56,29.40
2009,07,30,13,57,29.40
2009,07,30,13,58,29.30
2009,07,30,13,59,29.30
2009,07,30,14,00,29.30
2009,07,30,14,01,29.40
2009,07,30,14,02,29.50
2009,07,30,14,03,29.60
2009,07,30,14,04,29.80
2009,07,30,14,05,29.80
2009,07,30,14,06,29.90
2009,07,30,14,07,30.00
2009,07,30,14,08,30.00
2009,07,30,14,09,30.10
2009,07,30,14,10,30.00
2009,07,30,14,11,30.00
2009,07,30,14,12,29.90
2009,07,30,14,13,29.80
2009,07,30,14,14,29.80
2009,07,30,14,15,29.80
2009,07,30,14,16,29.80
2009,07,30,14,17,29.80
2009,07,30,14,18,29.80
2009,07,30,14,19,29.80
2009,07,30,14,20,29.80
2009,07,30,14,21,29.80
2009,07,30,14,22,29.80
2009,07,30,14,23,29.80
2009,07,30,14,24,29.80
2009,07,30,14,25,29.80
2009,07,30,14,26,29.90
2009,07,30,14,27,29.90
2009,07,30,14,28,30.00
2009,07,30,14,29,30.10
2009,07,30,14,30,30.10
2009,07,30,14,31,30.20
2009,07,30,14,32,30.30
2009,07,30,14,33,30.40
2009,07,30,14,34,30.50
2009,07,30,14,35,30.50
2009,07,30,14,36,30.60
2009,07,30,14,37,30.60
2009,07,30,14,38,30.60
2009,07,30,14,39,30.70
2009,07,30,14,40,30.60
2009,07,30,14,41,30.60
2009,07,30,14,42,30.70
2009,07,30,14,43,30.80
2009,07,30,14,44,30.80
2009,07,30,14,45,30.80
2009,07,30,14,46,30.80
2009,07,30,14,47,30.80
2009,07,30,14,48,30.80
2009,07,30,14,49,30.80
2009,07,30,14,50,30.70
2009,07,30,14,51,30.70
2009,07,30,14,52,30.60
2009,07,30,14,53,30.60
2009,07,30,14,54,30.50
2009,07,30,14,55,30.40
2009,07,30,14,56,30.40
2009,07,30,14,57,30.40
2009,07,30,14,58,30.30
2009,07,30,14,59,30.30
2009,07,30,15,00,30.30
2009,07,30,15,01,30.30
2009,07,30,15,02,30.20
2009,07,30,15,03,30.10
2009,07,30,15,04,30.10
2009,07,30,15,05,30.10
2009,07,30,15,06,30.10
2009,07,30,15,07,30.10
2009,07,30,15,08,30.00
2009,07,30,15,09,29.90
2009,07,30,15,10,29.80
2009,07,30,15,11,29.70
2009,07,30,15,12,29.70
2009,07,30,15,13,29.60
2009,07,30,15,14,29.60
2009,07,30,15,15,29.60
2009,07,30,15,16,29.60
2009,07,30,15,17,29.70
2009,07,30,15,18,29.70
2009,07,30,15,19,29.70
2009,07,30,15,20,29.70
2009,07,30,15,21,29.70
2009,07,30,15,22,29.60
2009,07,30,15,23,29.60
2009,07,30,15,24,29.60
2009,07,30,15,25,29.60
2009,07,30,15,26,29.70
2009,07,30,15,27,29.70
2009,07,30,15,28,29.70
2009,07,30,15,29,29.70
2009,07,30,15,30,29.80
2009,07,30,15,31,29.80
2009,07,30,15,32,29.80
2009,07,30,15,33,29.70
2009,07,30,15,34,29.70
2009,07,30,15,35,29.70
2009,07,30,15,36,29.60
2009,07,30,15,37,29.60
2009,07,30,15,38,29.60
2009,07,30,15,39,29.60
2009,07,30,15,40,29.60
2009,07,30,15,41,29.70
2009,07,30,15,42,29.70
2009,07,30,15,43,29.80
2009,07,30,15,44,29.80
2009,07,30,15,45,29.90
2009,07,30,15,46,30.00
2009,07,30,15,47,30.10
2009,07,30,15,48,30.10
2009,07,30,15,49,30.00
2009,07,30,15,50,29.90
2009,07,30,15,51,29.80
2009,07,30,15,52,29.80
2009,07,30,15,53,29.80
2009,07,30,15,54,29.80
2009,07,30,15,55,29.80
2009,07,30,15,56,29.90
2009,07,30,15,57,29.90
2009,07,30,15,58,29.90
2009,07,30,15,59,30.00
2009,07,30,16,00,30.00
2009,07,30,16,01,30.10
2009,07,30,16,02,30.10
2009,07,30,16,03,30.10
2009,07,30,16,04,30.10
2009,07,30,16,05,30.10
2009,07,30,16,06,30.10
2009,07,30,16,07,30.00
2009,07,30,16,08,29.80
2009,07,30,16,09,29.70
2009,07,30,16,10,29.60
2009,07,30,16,11,29.50
2009,07,30,16,12,29.40
2009,07,30,16,13,29.30
2009,07,30,16,14,29.30
2009,07,30,16,15,29.30
2009,07,30,16,16,29.20
2009,07,30,16,17,29.20
2009,07,30,16,18,29.10
2009,07,30,16,19,29.00
2009,07,30,16,20,29.00
2009,07,30,16,21,28.90
2009,07,30,16,22,28.90
2009,07,30,16,23,28.80
2009,07,30,16,24,28.80
2009,07,30,16,25,28.80
2009,07,30,16,26,28.70
2009,07,30,16,27,28.60
2009,07,30,16,28,28.60
2009,07,30,16,29,28.50
2009,07,30,16,30,28.50
2009,07,30,16,31,28.60
2009,07,30,16,32,28.60
2009,07,30,16,33,28.60
2009,07,30,16,34,28.60
2009,07,30,16,35,28.60
2009,07,30,16,36,28.60
2009,07,30,16,37,28.60
2009,07,30,16,38,28.60
2009,07,30,16,39,28.60
2009,07,30,16,40,28.60
2009,07,30,16,41,28.60
2009,07,30,16,42,28.50
2009,07,30,16,43,28.40
2009,07,30,16,44,28.30
2009,07,30,16,45,28.30
2009,07,30,16,46,28.30
2009,07,30,16,47,28.30
2009,07,30,16,48,28.30
2009,07,30,16,49,28.30
2009,07,30,16,50,28.30
2009,07,30,16,51,28.20
2009,07,30,16,52,28.20
2009,07,30,16,53,28.10
2009,07,30,16,54,28.00
2009,07,30,16,55,28.00
2009,07,30,16,56,27.90
2009,07,30,16,57,27.90
2009,07,30,16,58,27.80
2009,07,30,16,59,27.80
2009,07,30,17,00,27.80
2009,07,30,17,01,27.80
2009,07,30,17,02,27.80
2009,07,30,17,03,27.80
2009,07,30,17,04,27.80
2009,07,30,17,05,27.70
2009,07,30,17,06,27.70
2009,07,30,17,07,27.80
2009,07,30,17,08,27.80
2009,07,30,17,09,27.80
2009,07,30,17,10,27.70
2009,07,30,17,11,27.60
2009,07,30,17,12,27.50
2009,07,30,17,13,27.50
2009,07,30,17,14,27.40
2009,07,30,17,15,27.50
2009,07,30,17,16,27.50
2009,07,30,17,17,27.50
2009,07,30,17,18,27.40
2009,07,30,17,19,27.30
2009,07,30,17,20,27.30
2009,07,30,17,21,27.30
2009,07,30,17,22,27.30
2009,07,30,17,23,27.30